DW4033 Weather Reports


Display with metric or nautical units.
time (UTC)temp
F
wind
direction
speed
MPH
gust
MPH
rain 1hr
in
rain 24hr
in
rain mn
in
humidity
%
barometer
mb
20190124070056 23 128 0.0 12.0 0.00 0.00 0.00 96 1008.6
20190124064557 23 0 0.0 10.0 0.00 0.00 0.00 96 1008.6
20190124063057 23 0 0.0 8.0 0.00 0.00 0.00 96 1008.5
20190124061553 23 0 0.0 10.0 0.00 0.00 0.00 96 1008.2
20190124060056 23 0 0.0 8.0 0.00 0.00 0.00 96 1008.1
20190124054554 23 0 0.0 8.0 0.00 0.00 0.00 96 1007.8
20190124053055 23 0 0.0 7.0 0.00 0.00 0.00 97 1007.7
20190124051553 23 0 0.0 4.0 0.00 0.00 0.00 97 1007.4
20190124050055 23 0 0.0 3.0 0.00 0.00 0.00 97 1007.5
20190124044552 23 0 0.0 8.0 0.00 0.00 0.00 97 1007.3
20190124043054 23 1 0.0 11.0 0.00 0.00 0.00 97 1007.2
20190124041552 23 0 0.0 4.0 0.00 0.00 0.00 97 1007.2
20190124040056 23 1 0.0 8.0 0.00 0.00 0.00 97 1007.0
20190124034552 23 0 0.0 4.0 0.00 0.00 0.00 97 1007.1
20190124033053 23 0 0.0 10.0 0.00 0.00 0.00 97 1007.0
20190124031554 23 0 0.0 6.0 0.00 0.00 0.00 97 1007.3
20190124030053 23 0 0.0 6.0 0.00 0.00 0.00 97 1007.0
20190124024551 23 0 0.0 4.0 0.00 0.00 0.00 97 1007.0
20190124023052 23 0 0.0 10.0 0.00 0.00 0.00 97 1007.1
20190124021550 23 0 0.0 4.0 0.00 0.00 0.00 97 1006.9
20190124020053 23 0 0.0 7.0 0.00 0.00 0.00 97 1006.9
20190124014552 23 0 0.0 7.0 0.00 0.00 0.00 97 1006.9
20190124013053 23 0 0.0 6.0 0.00 0.00 0.00 97 1006.8
20190124011550 23 0 0.0 7.0 0.00 0.00 0.00 97 1006.7
20190124010052 23 0 0.0 6.0 0.00 0.00 0.00 97 1006.4
20190124004549 23 357 0.0 7.0 0.00 0.00 0.00 97 1006.3
20190124003051 23 0 0.0 1.0 0.00 0.00 0.00 97 1006.2
20190124001548 23 343 0.0 10.0 0.00 0.00 0.00 97 1006.2
20190124000051 23 0 0.0 3.0 0.00 0.00 0.00 97 1006.1
20190123234548 24 0 0.0 6.0 0.00 0.00 0.00 97 1006.0
20190123233050 24 0 0.0 3.0 0.00 0.00 0.00 97 1006.2
20190123231547 24 0 0.0 3.0 0.00 0.00 0.00 97 1006.1
20190123230051 24 0 0.0 3.0 0.00 0.00 0.00 97 1006.3
20190123224548 24 0 0.0 0.0 0.00 0.00 0.00 98 1006.2
20190123223050 24 0 0.0 4.0 0.00 0.00 0.00 98 1006.1
20190123221547 24 0 0.0 1.0 0.00 0.00 0.00 98 1006.0
20190123220050 24 0 0.0 6.0 0.00 0.00 0.00 98 1005.9
20190123214546 24 0 0.0 0.0 0.00 0.00 0.00 98 1005.7
20190123213049 24 0 0.0 0.0 0.00 0.00 0.00 99 1005.7
20190123211547 24 0 0.0 0.0 0.00 0.00 0.00 99 1005.7
20190123210049 24 0 0.0 0.0 0.00 0.00 0.00 99 1005.5
20190123204546 24 0 0.0 0.0 0.00 0.00 0.00 99 1005.4
20190123203048 24 0 0.0 0.0 0.00 0.00 0.00 99 1005.3
20190123201546 24 0 0.0 0.0 0.00 0.00 0.00 99 1005.4
20190123200047 24 0 0.0 0.0 0.00 0.00 0.00 99 1005.1
20190123194546 24 0 0.0 6.0 0.00 0.00 0.00 99 1005.0
20190123193047 24 0 0.0 0.0 0.00 0.00 0.00 99 1004.8
20190123191545 24 0 0.0 0.0 0.00 0.00 0.00 99 1004.7
20190123190047 24 0 0.0 1.0 0.00 0.00 0.00 99 1004.7
20190123184545 24 0 0.0 8.0 0.00 0.00 0.00 99 1004.3
20190123183046 25 0 0.0 1.0 0.00 0.00 0.00 99 1004.5
20190123181544 25 0 0.0 0.0 0.00 0.00 0.00 99 1004.4
20190123180047 25 0 0.0 1.0 0.00 0.00 0.00 99 1004.5
20190123174543 24 0 0.0 0.0 0.00 0.00 0.00 99 1004.5
20190123173046 24 0 0.0 8.0 0.00 0.00 0.00 99 1004.3
20190123171543 24 0 0.0 1.0 0.00 0.00 0.00 98 1004.4
20190123170045 24 0 0.0 0.0 0.00 0.00 0.00 98 1004.3
20190123164543 24 0 0.0 0.0 0.00 0.00 0.00 98 1004.3
20190123163045 24 0 0.0 0.0 0.00 0.00 0.00 98 1004.1
20190123161543 24 0 0.0 0.0 0.00 0.00 0.00 98 1004.0
20190123160044 24 0 0.0 0.0 0.00 0.00 0.00 98 1004.0
20190123154542 24 0 0.0 0.0 0.00 0.00 0.00 98 1003.9
20190123153044 24 0 0.0 0.0 0.00 0.00 0.00 99 1003.9
20190123151542 24 0 0.0 4.0 0.00 0.00 0.00 99 1003.8
20190123150044 24 0 0.0 7.0 0.00 0.00 0.00 99 1003.8
20190123144541 24 0 0.0 0.0 0.00 0.00 0.00 99 1003.5
20190123143044 24 0 0.0 4.0 0.00 0.00 0.00 99 1003.5
20190123141540 24 0 0.0 1.0 0.00 0.00 0.00 99 1003.5
20190123140043 24 0 0.0 1.0 0.00 0.00 0.00 99 1003.7
20190123134541 24 0 0.0 1.0 0.00 0.00 0.00 99 1003.5
20190123133042 24 0 0.0 0.0 0.00 0.00 0.00 99 1003.5
20190123131540 24 0 0.0 0.0 0.00 0.00 0.00 99 1003.6
20190123130042 24 0 0.0 0.0 0.00 0.00 0.00 99 1003.5
20190123124540 23 0 0.0 1.0 0.00 0.00 0.00 99 1003.7
20190123123042 23 0 0.0 6.0 0.00 0.00 0.00 99 1003.7
20190123121542 23 0 0.0 0.0 0.00 0.00 0.00 99 1003.7
20190123120042 22 0 0.0 4.0 0.00 0.00 0.00 99 1003.7
20190123114539 22 0 0.0 4.0 0.00 0.00 0.00 99 1003.9
20190123113041 21 0 0.0 1.0 0.00 0.00 0.00 99 1003.9
20190123111538 21 321 0.0 6.0 0.00 0.00 0.00 99 1004.2
20190123110041 21 0 0.0 1.0 0.00 0.00 0.00 99 1004.3
20190123104539 20 0 0.0 0.0 0.00 0.00 0.00 99 1004.6
20190123103041 20 0 0.0 1.0 0.00 0.00 0.00 99 1004.8
20190123101538 20 0 0.0 0.0 0.00 0.00 0.00 99 1004.8
20190123100040 20 0 0.0 1.0 0.00 0.00 0.00 99 1005.2
20190123094538 19 0 0.0 0.0 0.00 0.00 0.00 99 1005.2
20190123093039 19 0 0.0 0.0 0.00 0.00 0.00 99 1005.5
20190123091537 18 0 0.0 0.0 0.00 0.00 0.00 99 1005.5
20190123090039 17 0 0.0 0.0 0.00 0.00 0.00 99 1005.4
20190123084538 17 0 0.0 0.0 0.00 0.00 0.00 99 1005.3
20190123083038 16 0 0.0 0.0 0.00 0.00 0.00 99 1005.2
20190123081536 16 0 0.0 3.0 0.00 0.00 0.00 99 1005.4
20190123080038 15 0 0.0 1.0 0.00 0.00 0.00 99 1005.4
20190123074535 14 0 0.0 0.0 0.00 0.00 0.00 99 1005.4
20190123073038 14 0 0.0 0.0 0.00 0.00 0.00 99 1005.5
20190123071535 14 0 0.0 0.0 0.00 0.00 0.00 99 1005.7